This is the latest recevied weather packets stored in our database for station/object SP1BMW-13. If no packets are shown the sender has not sent any weather packets the latest 10 day(s).
| Time | Temp. | Humidity | Pressure | Rain* | Wind** | Luminosity | Snow |
|---|---|---|---|---|---|---|---|
| 1788096217 | 25.56° C | 51% | 1007.8 hPa | 0 mm | 1.34 m/s, 146° | 296 W/m² | - |
| 1788096157 | 25.56° C | 50% | 1007.6 hPa | 0 mm | 0.89 m/s, 350° | 206 W/m² | - |
| 1788096098 | 25.56° C | 50% | 1007.7 hPa | 0 mm | 0.89 m/s, 194° | 302 W/m² | - |
| 1788096037 | 25.56° C | 50% | 1007.7 hPa | 0 mm | 0.89 m/s, 310° | 277 W/m² | - |
| 1788095977 | 25.56° C | 48% | 1007.7 hPa | 0 mm | 1.34 m/s, 302° | 244 W/m² | - |
| 1788095918 | 25.56° C | 48% | 1007.7 hPa | 0 mm | 1.34 m/s, 66° | 222 W/m² | - |
| 1788095857 | 26.11° C | 50% | 1007.6 hPa | 0 mm | 0.45 m/s, 49° | 122 W/m² | - |
| 1788095800 | 26.11° C | 50% | 1007.7 hPa | 0 mm | 0.89 m/s, 46° | 109 W/m² | - |
| 1788095737 | 26.11° C | 51% | 1007.7 hPa | 0 mm | 2.24 m/s, 118° | 111 W/m² | - |
| 1788095677 | 26.11° C | 51% | 1007.7 hPa | 0 mm | 0.45 m/s, 172° | 115 W/m² | - |
| 1788095622 | 26.11° C | 50% | 1007.6 hPa | 0 mm | 0.89 m/s, 281° | 122 W/m² | - |
| 1788095557 | 26.11° C | 50% | 1007.7 hPa | 0 mm | 0.45 m/s, 246° | 119 W/m² | - |
| 1788095497 | 26.11° C | 50% | 1007.4 hPa | 0 mm | 1.79 m/s, 136° | 117 W/m² | - |
| 1788095440 | 26.11° C | 50% | 1007.5 hPa | 0 mm | 0.89 m/s, 317° | 125 W/m² | - |
| 1788095377 | 26.11° C | 50% | 1007.6 hPa | 0 mm | 0.45 m/s, 175° | 162 W/m² | - |
| 1788095318 | 26.11° C | 50% | 1007.6 hPa | 0 mm | 1.34 m/s, 160° | 180 W/m² | - |
| 1788095260 | 26.11° C | 50% | 1007.6 hPa | 0 mm | 0.45 m/s, 210° | 190 W/m² | - |
| 1788095198 | 26.11° C | 50% | 1007.6 hPa | 0 mm | 0.89 m/s, 284° | 651 W/m² | - |
| 1788095137 | 26.11° C | 50% | 1007.7 hPa | 0 mm | 1.34 m/s, 305° | 518 W/m² | - |
| 1788095077 | 26.11° C | 49% | 1007.6 hPa | 0 mm | 1.79 m/s, 282° | 396 W/m² | - |
| 1788095017 | 26.11° C | 49% | 1007.6 hPa | 0 mm | 2.68 m/s, 276° | 219 W/m² | - |
| 1788094957 | 26.11° C | 51% | 1007.7 hPa | 0 mm | 0.89 m/s, 106° | 533 W/m² | - |
| 1788094897 | 26.11° C | 51% | 1007.6 hPa | 0 mm | 0.45 m/s, 251° | 451 W/m² | - |
| 1788094837 | 26.11° C | 50% | 1007.8 hPa | 0 mm | 0.45 m/s, 61° | 150 W/m² | - |
| 1788094777 | 26.11° C | 51% | 1007.7 hPa | 0 mm | 1.79 m/s, 209° | 137 W/m² | - |
* Rain latest hour (hover to see other rain measurements)
** Current wind speed in m/s (hover to see current wind gust speed)